Change the Weather History Date:

Thursday, April 10, 2014

  Actual Average Record
Temperature  
Mean Temperature 41 °F 35 °F  
Max Temperature 56 °F 46 °F 66 °F (1985)
Min Temperature 26 °F 24 °F 10 °F (1999)
Degree Days  
Heating Degree Days 24 30  
Month to date heating degree days 267 310  
Since 1 July heating degree days 7273 8099  
Cooling Degree Days 0 0  
Month to date cooling degree days 0 0  
Year to date cooling degree days 0 0  
Moisture  
Dew Point 24 °F    
Average Humidity 57    
Maximum Humidity 92    
Minimum Humidity 22    
Precipitation  
Precipitation 0.00 in 0.07 in 1.16 in (1948)
Month to date precipitation 0.39 0.72  
Year to date precipitation 11.34 6.39  
Sea Level Pressure  
Sea Level Pressure 30.09 in    
Wind  
Wind Speed 3 mph (WNW)    
Max Wind Speed 12 mph    
Max Gust Speed 15 mph    
Visibility 10 miles    
Events      
T = Trace of Precipitation, MM = Missing Value Source: NWS Daily Summary

Daily Weather History Graph

Daily Weather History Graph

Search for Another Location

Airport or City:

Trip Planner

Search our weather history database for the weather conditions in past years. The results will help you decide how hot, cold, wet, or windy it might be!

Date:

Astronomy

Apr. 10, 2014 Rise Set
Actual Time 7:08 AM MDT 8:23 PM MDT
Civil Twilight 6:38 AM MDT 8:53 PM MDT
Nautical Twilight 6:02 AM MDT 9:30 PM MDT
Astronomical Twilight 5:23 AM MDT 10:08 PM MDT
Moon 4:01 PM MDT (4/10) 4:45 AM MDT (4/10)
Length of Visible Light 14h 15m
Length of Day
13h 15m
Waxing Gibbous, 80% of the Moon is Illuminated
Apr 10
Waxing Gibbous
Apr 15
Full
Apr 22
Last Quarter
Apr 29
New
May 6
First Quarter

Hourly Weather History & Observations

Time (MDT) Temp. Windchill Dew Point Humidity Pressure Visibility Wind Dir Wind Speed Gust Speed Precip Events Conditions
12:51 AM 32.0 °F 24.8 °F 28.0 °F 85% 30.07 in 10.0 mi North 8.1 mph - N/A   Clear
1:51 AM 30.0 °F - 27.0 °F 88% 30.08 in 10.0 mi Calm Calm - N/A   Clear
2:51 AM 32.0 °F 27.5 °F 26.1 °F 79% 30.06 in 10.0 mi North 4.6 mph - N/A   Clear
3:51 AM 30.0 °F 26.5 °F 25.0 °F 82% 30.07 in 10.0 mi NNE 3.5 mph - N/A   Clear
4:51 AM 33.1 °F 28.7 °F 24.1 °F 70% 30.06 in 10.0 mi North 4.6 mph - N/A   Clear
5:51 AM 28.9 °F - 24.1 °F 82% 30.09 in 10.0 mi Calm Calm - N/A   Clear
6:51 AM 27.0 °F - 24.1 °F 89% 30.10 in 10.0 mi Calm Calm - N/A   Clear
7:51 AM 28.9 °F - 24.1 °F 82% 30.11 in 10.0 mi Calm Calm - N/A   Clear
8:51 AM 33.1 °F - 26.1 °F 75% 30.13 in 10.0 mi Calm Calm - N/A   Clear
9:51 AM 37.0 °F - 27.0 °F 67% 30.14 in 10.0 mi Calm Calm - N/A   Clear
10:51 AM 41.0 °F 39.0 °F 28.0 °F 60% 30.13 in 10.0 mi Variable 3.5 mph - N/A   Clear
11:51 AM 46.0 °F 43.9 °F 26.1 °F 46% 30.14 in 10.0 mi SSW 4.6 mph - N/A   Clear
12:51 PM 48.9 °F - 19.0 °F 31% 30.12 in 10.0 mi South 3.5 mph - N/A   Clear
1:51 PM 51.1 °F - 21.0 °F 31% 30.11 in 10.0 mi Variable 3.5 mph - N/A   Clear
2:51 PM 54.0 °F - 24.1 °F 31% 30.09 in 10.0 mi West 10.4 mph - N/A   Clear
3:51 PM 54.0 °F - 21.0 °F 28% 30.08 in 10.0 mi WNW 4.6 mph - N/A   Clear
4:51 PM 54.0 °F - 17.1 °F 23% 30.06 in 10.0 mi WNW 8.1 mph - N/A   Clear
5:51 PM 54.0 °F - 16.0 °F 22% 30.07 in 10.0 mi WSW 10.4 mph - N/A   Clear
6:51 PM 53.1 °F - 19.9 °F 27% 30.08 in 10.0 mi West 8.1 mph - N/A   Clear
7:51 PM 51.1 °F - 19.9 °F 29% 30.08 in 10.0 mi WSW 4.6 mph - N/A   Clear
9:51 PM 39.9 °F - 25.0 °F 55% 30.08 in 10.0 mi Calm Calm - N/A   Clear
10:51 PM 36.0 °F - 26.1 °F 67% 30.08 in 10.0 mi Calm Calm - N/A   Clear
11:51 PM 34.0 °F - 25.0 °F 70% 30.07 in 10.0 mi Calm Calm - N/A   Clear